STARLINK-31113 (58668 NORAD) Tracking and Keplerian Element Data

This shows tracking and keplerian element data for the satellite.

Feedback or suggestion? Click here.




ElementValue
Catalog58668
NameSTARLINK-31113
Epoch Orbit348
Epoch Day12.91667824
Epoch Year2024
RAAN204.1079
Inclination42.9993
Eccentricity0.000189
Argument of Perigee267.557
Mean Anonmoly324.9815
Mean Motion15.74026467
Decay Rate-0.01643171
L11 58668U 23211B 24012.91667824 -.01643171 00000+0 -12597-1 0 9993
L22 58668 42.9993 204.1079 0001890 267.5570 324.9815 15.74026467 3483



Live tracking and technical data element details for STARLINK-31113 (NORAD 58668). STARLINK-31113 can be tracked NOW for your location showing map with azimuth and elevation plus other details from your city location.







IsCatalogInMostPopularTable: catalog: 58668, numindb: 24
Update: records affected: 1



GetName: 58668 STARLINK-31113

Hit Count: updated at: Wed, 17 Apr 2024 02:18:02 GMT